Starlink 34067

operational
NORAD ID: 64115 Int'l Des: 2025-110 Owner: SPXS Country: US Constellation: starlink
LEOCIRCULAR

About Starlink 34067

Description loading...

Live Position

Loading 3D Globe...

Upcoming Passes

Altitude History

Altitude vs Time

uPlot chart will show altitude changes over time

Two-Line Element Set

1 64115U 25110V 25354.38529613 .00019376 00000-0 66440-3 0 9991
2 64115 53.1603 34.9102 0001112 63.6627 296.4488 15.30209781 33745
Epoch: Dec 20, 2025 • Age: 15 hours

Current Status

Altitude 493.7 km
Velocity 7.62 km/s
Sub-Earth Point -51.58°S, 175.1°W
Launch Date May 23, 2025
Age 0.5 years
Type internet

Technical Details

Classification Payload
Mass 575.00 kg
Dry Mass 530.00 kg
Total Mass 575.00 kg
Length 0.30 m
Diameter 4.10 m
Span 29.00 m
Shape Box + pan
Manufacturer SPXS
Bus Type Starlink V2MO
Phase Status In Orbit
Owner/State SPXS/US

Large Constellations

Loading constellations...